sat.trackr.live / text

‹ back to catalog

STARLINK-5379

NORAD 54868 · 2022-177BA

PAYLOAD ACTIVE UNKNOWN

§ Identity

Operator
Country
US
Launch date
2022-12-28
Launch site
AFETR
Launch vehicle
Mass (kg)
RCS (m²)

Purposes: comms

External: N2YO · Heavens-Above · Gunter

§ Orbital elements

Epoch: 2026-05-25T02:57:44.365824Z

Period
94.27 min
Inclination
43.0074°
Eccentricity
0.0001769
Mean motion
15.27576990 rev/d
Perigee alt
481.8 km
Apogee alt
484.3 km
Semi-major
6,861.2 km
B*
1.4870e-5
RAAN
49.6161°
Arg perigee
258.9202°
Mean anomaly
101.1451°
Rev number
18,878

§ Raw data

STARLINK-53791 54868U 22177BA  26145.12343016  .00000147  00000+0  14870-4 0  99932 54868  43.0074  49.6161 0001769 258.9202 101.1451 15.27576990188785

JSON: /api/v1/satellites/54868 · /tle

For live sub-satellite position, see the globe view (requires WebGL).

§ Visibility from observer

Set your observer location to see the next 7 days of passes ≥ 10°. The values pass through the URL so the page stays shareable.

No JS? Fill the form by hand. The geolocation button needs JavaScript.